Погода в Тобаго

Тринидад и Тобаго     11°09′01″N   60°50′12″W
темп.,
°C
ветер,
м/с
пор.,
м/с
влажн.,
%
обл.,
%
осадки,
мм/ч
давл.,
гПа
погр.,
м
27 ноября, сб
сб2723:00+28в4476100 0.0 1012681
02:00+28всв4576100 0.0 1010749
05:00+28в557789 0.1 1011801
08:00+28в567793 1.6 1013756
11:00+28в5578100 0.1 1013721
14:00+28в5577100 1.0 1010739
17:00+27всв678055 4.1 1010502
20:00+28в788062 8.1 1012646
28 ноября, вс
вс2823:00+28в897733 2.3 1012930
02:00+28в897118 2.3 10101025
05:00+28в887618 0.1 1011946
08:00+28в897490 0.5 10121026
11:00+28в7876100 0.7 1013903
14:00+28в7777100 1.5 1010881
17:00+28в7877100 0.8 1010896
20:00+28в887776 1.4 1012930
29 ноября, пн
пн2923:00+28в887763 0.7 1012902
02:00+27в887898 1.9 1010841
05:00+28всв897284 2.0 1011965
08:00+28в787233 2.0 10121053
11:00+28в787535 0.4 1013929
14:00+28в7774100 1.3 1010940
17:00+28всв787468 1.6 1010997
20:00+28всв88736 1.7 10121065
30 ноября, вт
вт3023:00+28в88715 0.0 10121130
02:00+28в77715 0.0 10111017
05:00+28всв88745 0.1 10111030
08:00+28всв997512 0.2 1013985
11:00+28в897691 0.3 1013983
14:00+28в8978100 0.4 1011919
17:00+28всв8107934 0.4 1011905
20:00+28всв101180100 0.9 1012928
1 декабря, ср
ср123:00+28в101180100 1.4 1012923
02:00+27всв10118062 2.6 1011927
05:00+28всв10117933 1.4 1011937
08:00+28всв10127894 2.1 10131025
11:00+28всв101178100 0.9 1013996
14:00+28всв9117994 1.8 1011990
17:00+28всв101178100 0.1 10111016
20:00+28всв101179100 0.5 10121035